Regional Weather Roundup
Issued by NWS

Home | Current Version | Previous Version | Graphics & Text | Print | Product List | Glossary On
Versions: 1 2 3 4 5 6 7 8 9 10 11 12 13 14 15 16 17 18 19 20 21 22 23 24 25 26 27 28 29 30 31 32 33 34 35 36 37 38 39 40 41 42 43 44 45 46 47 48 49 50
612
ASUS45 KABQ 260701
RWRNM
NEW MEXICO REGIONAL WEATHER ROUNDUP
NATIONAL WEATHER SERVICE ALBUQUERQUE NM
100 AM MDT MON SEP 26 2016

NOTE: "FAIR" MEANS FEW OR NO CLOUDS BELOW 12,000 FEET AGL WITH NO
       SIGNIFICANT WEATHER OR OBSTRUCTIONS TO VISION.

      THIS PRODUCT IS RELEASED AS TWO VERSIONS.  ONE VERSION NEAR
      THE TOP OF THE HOUR CONTAINING PRELIMINARY DATA FROM ALBUQUERQUE
      AND OTHER STATIONS.  A FINAL VERSION WITH ADDITIONAL DATA IS
      ISSUED ABOUT 10 MINUTES AFTER THE HOUR.

NMZ501-503-504-510>518-260800-
NORTHWEST PLATEAU/NORTHCENTRAL MOUNTAINS

CITY           SKY/WX    TMP DP  RH WIND       PRES   REMARKS
FARMINGTON     FAIR      53  36  52 E9        30.37R
LOS ALAMOS     FAIR      51   3  14 SW13      30.50S
SANTA FE       FAIR      54  32  43 S5        30.46R
TAOS           FAIR      50  28  43 SE17      30.50R
ANGEL FIRE     FAIR      30  27  89 CALM      30.59S

$$
NMZ402-403-502-505>509-260800-
WESTCENTRAL MOUNTAINS/SOUTHWEST MOUNTAINS

CITY           SKY/WX    TMP DP  RH WIND       PRES   REMARKS
GALLUP         FAIR      51  32  48 E6        30.42R
SILVER CITY    FAIR      57  42  57 SE5       30.34S

$$
NMZ407-409-411-412-260800-
SOUTHERN DESERTS

CITY           SKY/WX    TMP DP  RH WIND       PRES   REMARKS
DEMING         CLOUDY    66  44  45 E17G29    30.28F
LAS CRUCES     CLOUDY    65  41  41 E6        30.29S
HOLLOMAN AFB   CLOUDY    69  41  36 SE8       30.25F
ALAMOGORDO     MOCLDY    68  36  30 E22G31    30.27F
T OR C         FAIR      63  39  41 N9        30.32R

$$
NMZ519>523-260800-
CENTRAL VALLEYS/CENTRAL HIGHLANDS

CITY           SKY/WX    TMP DP  RH WIND       PRES   REMARKS
ALBUQUERQUE    FAIR      59  35  40 E14       30.42R
DOUBLE EAGLE   FAIR      55  35  46 E10       30.46R
MORIARTY ARPT  FAIR      44  33  65 NE7       30.49S
CLINES CORNERS FAIR      44  33  65 E7        30.52R
BELEN          NOT AVBL
SOCORRO        FAIR      63  37  37 E10G17    30.37S

$$
NMZ524>526-539-540-260800-
SOUTHCENTRAL MOUNTAINS

CITY           SKY/WX    TMP DP  RH WIND       PRES   REMARKS
RUIDOSO        CLOUDY    48  37  66 SE8       30.49R

$$
NMZ527>531-260800-
NORTHEAST HIGHLANDS/NORTHEAST PLAINS

CITY           SKY/WX    TMP DP  RH WIND       PRES   REMARKS
LAS VEGAS      FAIR      40  33  76 N5        30.53S
RATON          FAIR      43  33  68 CALM      30.50F
CLAYTON        FAIR      51  35  54 N6        30.44F

$$
NMZ532>537-260800-
EASTCENTRAL PLAINS

CITY           SKY/WX    TMP DP  RH WIND       PRES   REMARKS
TUCUMCARI      FAIR      50  33  52 NE3       30.40R
CANNON AFB     CLEAR     50  43  76 NE8       30.39R
CLOVIS AIRPORT FAIR      46  39  76 N10       30.39R

$$
NMZ028-029-538-260800-
SOUTHEAST PLAINS

CITY           SKY/WX    TMP DP  RH WIND       PRES   REMARKS
ROSWELL        FAIR      59  44  57 NW5       30.36R
ARTESIA        FAIR      59  46  63 N8        30.35R
CARLSBAD       CLOUDY    61  49  64 NE7       30.31S
HOBBS          CLOUDY    59  45  58 NE14      30.32S


$$




USA.gov is the U.S. government's official web portal to all federal, state and local government web resources and services.